Location: Ciserano
(45.5833°N, 9.6000°E)
Time: 08:04:01
(UTC+00:00)

Cosmos 1295 Rocket - Pass Details

Date: 22 April 2021
Orbit: 944 x 993 km, 82.9° (Epoch: 13 May)

Event Time Altitude Azimuth Distance (km) Brightness Sun altitude
Rises 21:37:47 0° 6° (N) 3,681 8.3 -27.5°
Reaches altitude 10° 21:42:08 10° 35° (NE) 2,740 7.2 -27.9°
Maximum altitude 21:44:43 13° 59° (ENE) 2,554 6.7 -28.1°
Enters shadow 21:46:13 12° 74° (ENE) 2,619 6.6 -28.2°
